Wind_Speed
83 83 83 83 82 82 82 82 82 82 82 82 82 82 82 81 80 78 76 74 74 73 73 74 75 76 77 77 78 78 78 78 79 79 80 80 80 81 81 81 82 83
83 83 83 83 83 83 83 82 82 82 82 83 82 82 81 80 78 76 75 74 74 74 75 76 77 78 79 80 81 81 81 81 82 82 83 82 82 83 82 82 83 84
84 84 83 83 83 82 82 81 81 81 81 81 81 80 79 77 76 75 74 75 75 76 77 78 78 80 81 82 83 83 84 84 84 84 85 85 84 84 84 84 85 85
82 82 82 81 81 80 79 79 78 78 78 77 77 76 76 75 75 74 75 76 77 77 78 79 80 81 82 83 84 85 85 86 86 87 87 87 87 87 86 86 87 87
80 80 79 79 78 77 76 76 75 75 74 74 74 74 74 74 75 75 76 77 78 79 80 81 82 83 84 85 86 86 87 88 88 89 90 89 89 89 88 89 89 89
78 78 77 76 75 74 74 73 73 73 73 73 73 74 75 75 76 77 78 79 80 81 81 82 83 84 85 86 87 88 89 89 90 90 91 91 90 90 90 91 91 90
77 76 75 75 74 73 72 72 73 73 73 74 74 75 76 77 79 80 81 82 82 83 83 84 85 85 87 88 89 90 91 91 92 92 93 93 92 92 92 92 93 92
76 75 75 74 74 73 73 73 74 75 76 76 77 78 79 80 81 82 83 84 85 85 86 86 87 88 89 90 91 92 93 93 94 94 95 95 95 94 93 94 94 94
76 76 75 75 75 75 75 75 76 77 78 79 80 81 82 83 85 86 86 87 88 88 89 90 91 91 92 93 94 95 95 95 96 97 97 97 97 96 96 96 96 96
76 76 76 76 76 77 77 77 78 79 79 80 81 82 83 85 86 88 89 89 90 91 92 92 93 94 94 95 96 97 97 97 97 98 99 99 98 98 98 98 99 99
77 76 76 76 77 77 78 78 79 80 80 81 82 83 84 85 86 87 89 89 90 91 92 92 93 94 94 95 96 97 98 98 98 99 99 100 100 100 100 101 102 102
76 76 76 76 77 77 78 78 79 80 80 81 82 82 83 84 85 86 87 88 88 89 90 90 91 92 93 93 94 95 96 97 98 99 99 100 101 102 103 104 105 105
75 76 76 76 76 76 77 77 78 78 79 79 80 81 81 82 82 83 84 85 86 86 87 88 89 90 91 92 93 94 96 97 99 100 101 102 103 104 105 106 107 107
74 74 74 74 74 75 75 75 76 76 77 78 78 79 80 80 81 82 83 84 85 86 87 88 89 90 91 93 94 96 98 99 101 102 103 104 105 106 107 107 108 108
71 72 72 72 73 73 74 74 75 76 76 77 78 79 80 81 82 83 84 85 86 87 89 90 92 93 94 96 98 99 101 102 104 105 106 107 107 107 108 108 109 109
69 70 71 72 73 73 74 75 76 77 77 78 79 80 81 82 83 85 86 88 89 90 92 94 95 97 98 100 101 103 104 105 106 106 107 108 109 109 109 109 109 109
70 70 71 73 74 75 76 77 77 78 79 80 81 82 84 85 87 88 90 92 93 94 95 96 98 99 101 102 103 105 107 108 108 108 108 109 109 109 108 107 106 104
72 73 74 75 76 77 78 79 80 81 82 83 84 86 87 89 91 92 93 95 97 97 98 99 100 102 103 104 105 106 107 108 108 107 107 106 105 103 101 98 95 92
75 76 76 78 79 80 81 82 83 85 87 88 89 90 91 93 94 95 96 98 99 100 100 101 102 103 104 103 103 102 102 101 101 99 98 96 93 90 88 85 81 78
78 78 79 80 81 83 84 86 87 89 91 92 93 93 94 95 96 97 98 99 100 101 101 100 100 100 99 96 94 93 91 90 89 88 86 84 81 78 75 72 69 66
80 80 81 83 84 86 88 89 91 92 93 94 95 95 96 96 97 98 98 98 98 98 97 96 93 92 89 87 85 84 82 80 79 77 75 72 69 66 63 59 57 55
82 83 84 86 88 89 90 91 92 93 94 95 95 95 95 95 95 95 94 93 92 92 91 88 85 83 80 78 76 74 71 69 67 65 63 60 58 55 52 50 48 47
86 87 88 89 90 91 91 92 93 93 93 94 94 92 91 90 90 89 88 87 86 84 83 79 75 73 71 67 64 62 60 59 57 55 53 51 48 46 44 42 41 40
88 89 90 90 91 91 91 91 91 91 90 90 89 88 86 84 83 82 80 79 78 77 74 71 66 62 59 56 54 53 53 51 49 47 45 43 40 38 37 35 34 34
90 90 90 90 90 89 89 88 87 86 86 85 84 82 80 77 76 75 73 71 70 68 65 61 57 53 50 48 47 46 45 44 42 39 36 33 31 30 29 29 29 29
89 89 88 87 87 85 84 84 83 82 81 79 77 75 73 71 70 69 68 65 63 59 56 53 50 46 43 40 39 39 38 37 34 31 27 25 24 24 24 24 24 25
Wind_Direction
290 290 289 289 289 288 288 287 286 286 285 284 283 282 281 280 279 277 274 271 269 267 266 266 266 266 266 266 267 267 268 268 269 270 270 270 271 272 273 274 274 275
291 290 290 290 289 288 288 287 286 285 284 283 282 281 280 279 277 274 271 269 267 266 266 265 265 266 266 266 267 268 268 269 270 270 271 271 272 272 273 274 275 275
291 291 291 290 290 289 288 287 286 285 284 283 282 280 278 276 274 271 269 268 267 266 266 266 267 267 267 268 268 268 269 270 270 271 272 272 272 273 274 274 275 275
291 292 291 291 290 289 288 287 286 285 283 281 280 278 276 273 271 269 268 268 267 267 267 268 268 268 268 269 269 269 270 270 271 271 272 272 273 274 274 275 275 275
291 291 290 290 289 289 288 286 285 284 282 280 278 275 273 271 270 269 268 268 269 269 269 269 269 269 270 270 270 271 271 271 271 272 272 273 273 274 274 275 274 274
291 290 290 290 289 288 287 286 284 283 281 278 276 274 272 271 270 269 269 269 270 270 270 270 271 271 271 271 271 271 272 272 272 272 273 273 273 274 274 274 273 273
292 291 291 290 289 288 287 285 283 282 280 278 275 273 272 271 271 271 271 271 271 271 272 272 272 272 272 272 272 272 273 273 273 273 273 273 273 273 273 273 273 273
292 292 291 290 289 287 286 284 283 281 280 278 276 275 274 274 273 273 273 273 273 273 273 273 273 273 273 273 273 273 273 274 274 274 273 273 273 273 272 272 272 273
291 290 290 288 287 286 285 284 283 281 280 279 278 278 277 277 276 276 275 275 275 275 275 275 275 275 275 274 274 274 274 274 273 273 273 273 273 273 273 273 273 273
291 290 289 288 287 286 285 284 284 283 282 281 280 280 279 279 278 278 277 277 277 277 276 276 276 276 276 275 275 275 274 274 273 273 273 273 273 273 273 274 274 274
291 290 289 289 288 287 286 285 285 284 283 283 282 282 281 281 280 280 279 279 278 278 278 277 277 277 276 276 275 275 274 274 273 273 273 273 273 274 274 275 275 275
292 291 290 290 289 288 287 287 286 286 285 284 284 283 283 282 282 281 281 280 279 279 278 278 277 277 276 276 275 275 274 274 274 273 273 274 274 275 275 276 276 276
292 292 291 290 290 289 289 288 288 287 286 286 285 285 284 283 282 282 282 281 280 280 279 279 278 277 277 277 276 275 275 275 275 274 275 275 275 275 276 276 276 276
292 292 292 291 291 290 290 289 289 288 288 287 287 286 286 285 284 284 283 283 282 282 281 280 280 279 278 278 277 277 277 276 276 276 276 276 276 276 276 276 276 276
293 293 292 292 292 291 291 290 290 290 289 289 288 288 287 287 286 286 285 285 284 284 283 283 282 281 281 280 279 278 278 278 277 277 277 277 277 276 276 276 276 276
294 294 294 294 293 293 292 292 291 291 291 290 290 290 289 289 288 288 288 287 286 285 285 285 284 283 283 282 282 281 280 280 279 279 278 278 277 277 276 276 275 275
296 296 296 295 295 294 294 294 293 293 293 292 292 291 291 291 290 290 289 289 288 287 287 286 286 285 285 284 284 283 283 282 281 280 279 278 278 277 276 275 274 273
298 298 298 297 297 297 296 296 296 295 295 294 294 293 293 293 292 292 291 290 290 289 288 288 287 287 286 285 285 284 283 283 282 281 279 278 277 276 275 274 273 271
300 300 300 299 299 298 298 298 297 297 297 296 296 295 295 294 294 293 293 292 291 290 289 289 288 287 287 286 285 284 284 283 282 281 280 279 278 276 275 273 271 269
302 301 301 301 300 300 300 299 299 299 298 298 297 297 296 295 295 294 294 293 292 291 290 290 289 288 288 287 286 285 284 283 282 281 280 278 277 275 273 271 269 267
302 302 302 301 301 301 300 300 300 299 299 298 298 297 297 296 296 295 294 293 293 292 291 291 290 289 288 287 286 285 284 282 281 280 279 277 276 274 272 270 267 263
303 302 302 302 301 301 301 300 300 300 299 299 298 298 298 297 297 296 295 294 293 292 292 291 290 289 288 288 287 285 284 282 280 279 277 276 275 273 271 267 263 257
303 303 302 302 302 302 301 301 300 300 300 299 299 299 299 298 298 297 296 295 294 293 292 291 291 290 290 289 287 285 283 282 280 278 276 275 273 271 268 262 256 251
304 304 303 303 303 302 302 301 301 301 301 300 300 300 300 300 299 298 297 296 295 294 294 293 293 292 291 290 287 285 283 281 279 277 275 273 271 267 262 255 249 244
305 304 304 304 303 303 303 302 302 302 302 302 302 302 302 302 301 300 299 298 297 297 297 297 296 294 292 290 287 284 282 280 278 276 273 270 266 260 254 248 242 237
305 305 305 304 304 304 304 304 304 304 304 304 304 304 304 304 303 302 301 300 299 300 300 299 297 295 293 290 287 284 282 279 277 274 269 263 257 251 244 239 234 229
Height
5478 5475 5472 5469 5466 5462 5459 5456 5453 5450 5448 5445 5443 5442 5440 5438 5436 5434 5433 5431 5429 5428 5427 5426 5424 5423 5421 5420 5419 5418 5418 5417 5417 5416 5414 5413 5414 5413 5412 5412 5410 5408
5467 5463 5460 5457 5453 5450 5446 5444 5441 5438 5435 5432 5430 5428 5427 5425 5423 5422 5421 5419 5418 5417 5416 5415 5413 5411 5409 5408 5407 5406 5405 5405 5404 5402 5400 5401 5402 5400 5400 5400 5397 5395
5454 5450 5447 5443 5440 5437 5433 5430 5427 5424 5422 5419 5416 5414 5413 5412 5410 5409 5408 5407 5406 5405 5404 5402 5401 5399 5397 5395 5394 5393 5393 5392 5391 5389 5386 5388 5388 5386 5387 5386 5384 5383
5443 5438 5435 5431 5428 5424 5421 5418 5415 5412 5409 5406 5404 5402 5400 5399 5398 5397 5396 5394 5393 5393 5391 5390 5388 5386 5384 5382 5380 5380 5380 5378 5378 5376 5373 5374 5375 5372 5373 5372 5370 5370
5433 5428 5424 5421 5417 5413 5409 5406 5403 5400 5397 5395 5392 5390 5388 5387 5385 5384 5383 5381 5380 5379 5379 5377 5375 5373 5371 5369 5367 5366 5366 5365 5364 5362 5359 5360 5361 5359 5358 5357 5356 5356
5421 5417 5413 5410 5406 5402 5398 5395 5391 5388 5386 5383 5381 5379 5376 5375 5373 5372 5370 5369 5367 5366 5365 5364 5362 5360 5357 5355 5354 5352 5351 5350 5350 5348 5345 5346 5347 5345 5344 5343 5341 5342
5409 5405 5401 5398 5394 5390 5387 5384 5380 5377 5375 5372 5370 5367 5365 5363 5361 5359 5357 5356 5355 5353 5351 5350 5348 5347 5344 5341 5340 5339 5337 5335 5334 5333 5330 5330 5331 5331 5331 5328 5326 5326
5397 5393 5389 5386 5382 5378 5375 5372 5369 5365 5363 5360 5358 5356 5353 5351 5348 5347 5345 5342 5341 5339 5337 5336 5334 5332 5330 5327 5325 5324 5323 5321 5319 5316 5314 5314 5314 5314 5315 5313 5310 5310
5385 5382 5378 5374 5370 5367 5364 5360 5357 5354 5351 5348 5346 5343 5340 5338 5335 5333 5331 5329 5327 5325 5323 5321 5319 5317 5315 5312 5310 5308 5307 5306 5304 5300 5298 5298 5297 5297 5298 5296 5294 5293
5374 5371 5367 5363 5359 5356 5352 5348 5345 5342 5339 5336 5333 5331 5328 5325 5322 5319 5317 5315 5313 5311 5308 5306 5304 5302 5300 5297 5295 5292 5290 5290 5288 5285 5282 5280 5280 5280 5280 5279 5276 5276
5362 5359 5356 5351 5348 5344 5340 5337 5333 5330 5327 5323 5320 5318 5315 5312 5308 5305 5302 5301 5299 5296 5293 5291 5288 5286 5284 5282 5279 5275 5273 5272 5270 5268 5266 5264 5263 5263 5262 5261 5259 5258
5350 5347 5343 5340 5335 5332 5328 5324 5320 5317 5314 5310 5307 5304 5302 5298 5295 5291 5288 5286 5284 5281 5278 5276 5273 5270 5268 5265 5263 5259 5256 5254 5252 5251 5249 5247 5246 5245 5244 5242 5240 5239
5339 5335 5331 5327 5323 5319 5315 5311 5308 5304 5300 5297 5293 5290 5287 5284 5281 5278 5274 5270 5268 5266 5262 5259 5257 5255 5252 5248 5246 5242 5239 5236 5234 5232 5231 5230 5229 5227 5225 5223 5221 5219
5328 5323 5319 5315 5311 5307 5303 5299 5295 5291 5287 5284 5280 5276 5273 5269 5266 5263 5260 5256 5252 5249 5246 5242 5240 5238 5235 5231 5227 5225 5221 5217 5216 5213 5212 5211 5210 5209 5207 5204 5202 5200
5317 5312 5308 5304 5299 5295 5291 5287 5283 5279 5275 5271 5267 5263 5259 5255 5252 5248 5244 5241 5237 5233 5229 5225 5222 5219 5216 5212 5208 5206 5202 5199 5197 5195 5192 5190 5189 5189 5188 5185 5182 5179
5306 5302 5298 5293 5288 5284 5279 5275 5271 5267 5263 5258 5254 5249 5245 5241 5238 5233 5228 5224 5221 5217 5213 5208 5204 5200 5197 5192 5188 5184 5181 5178 5176 5174 5172 5170 5168 5167 5166 5164 5161 5158
5296 5291 5287 5281 5276 5272 5267 5262 5258 5254 5249 5245 5240 5236 5231 5227 5222 5218 5213 5207 5202 5200 5196 5192 5187 5182 5177 5173 5170 5164 5158 5154 5152 5152 5151 5148 5145 5143 5143 5142 5140 5137
5284 5280 5275 5269 5264 5259 5254 5249 5244 5240 5235 5230 5226 5222 5217 5212 5206 5201 5197 5191 5184 5181 5178 5174 5170 5163 5157 5153 5150 5144 5137 5130 5127 5127 5127 5125 5123 5121 5119 5119 5119 5118
5272 5267 5262 5257 5251 5246 5241 5235 5230 5225 5219 5214 5211 5206 5201 5195 5190 5185 5179 5173 5166 5161 5159 5156 5151 5144 5138 5133 5128 5123 5117 5111 5105 5104 5104 5103 5102 5101 5099 5099 5100 5100
5260 5255 5249 5244 5238 5232 5227 5222 5216 5210 5204 5198 5194 5190 5185 5179 5173 5167 5161 5155 5147 5142 5139 5136 5131 5124 5118 5113 5108 5103 5099 5093 5087 5085 5085 5084 5084 5083 5082 5083 5084 5085
5248 5243 5237 5231 5225 5219 5214 5208 5202 5196 5189 5183 5179 5174 5168 5162 5156 5149 5143 5137 5130 5123 5118 5117 5113 5105 5099 5095 5090 5085 5081 5077 5072 5071 5069 5069 5069 5068 5069 5070 5071 5072
5235 5230 5225 5219 5213 5206 5200 5194 5188 5181 5174 5168 5163 5159 5153 5146 5139 5131 5124 5118 5113 5106 5100 5099 5096 5088 5083 5079 5075 5069 5065 5062 5059 5058 5057 5057 5057 5057 5058 5059 5061 5062
5222 5217 5211 5206 5199 5192 5186 5180 5173 5167 5160 5152 5147 5144 5139 5131 5123 5116 5108 5101 5096 5090 5084 5083 5080 5074 5068 5065 5061 5056 5052 5050 5048 5047 5047 5047 5047 5048 5049 5050 5052 5054
5209 5202 5196 5190 5185 5178 5171 5165 5159 5152 5145 5138 5131 5127 5123 5117 5108 5100 5094 5087 5081 5075 5070 5067 5066 5061 5056 5053 5049 5045 5041 5040 5038 5038 5039 5039 5039 5040 5041 5043 5046 5049
5194 5187 5181 5175 5169 5163 5157 5149 5144 5138 5132 5125 5118 5113 5108 5102 5093 5085 5081 5075 5069 5063 5058 5054 5053 5050 5046 5042 5039 5036 5033 5031 5030 5031 5031 5032 5033 5034 5036 5038 5041 5044
5179 5173 5166 5160 5154 5149 5143 5136 5129 5124 5118 5112 5107 5101 5095 5088 5080 5072 5068 5064 5058 5054 5049 5045 5042 5040 5038 5034 5031 5028 5026 5025 5024 5025 5026 5027 5028 5030 5032 5034 5037 5040